Weather History for West Palm Beach, FL

Change the Weather History Date:

Tuesday, October 25, 2011

  Actual Average Record
Temperature  
Mean Temperature 74 °F 77 °F  
Max Temperature 82 °F 84 °F 90 °F (1925)
Min Temperature 66 °F 70 °F 52 °F (2005)
Degree Days  
Heating Degree Days 0 0  
Month to date heating degree days 0 0  
Since 1 July heating degree days 0 0  
Cooling Degree Days 9 12  
Month to date cooling degree days 327 347  
Year to date cooling degree days 4219 3555  
Growing Degree Days 24 (Base 50)    
Moisture  
Dew Point 61 °F    
Average Humidity 67    
Maximum Humidity 87    
Minimum Humidity 47    
Precipitation  
Precipitation 0.00 in 0.15 in 1.94 in (1921)
Month to date precipitation 3.54 4.25  
Year to date precipitation 39.31 53.32  
Snow  
Snow 0.00 in - - ()
Month to date snowfall 0.0  
Since 1 July snowfall 0.0  
Since 1 September snowfall 0.0  
Snow Depth 0.00 in    
Sea Level Pressure  
Sea Level Pressure 30.06 in    
Wind  
Wind Speed 11 mph (NNE)    
Max Wind Speed 21 mph    
Max Gust Speed 25 mph    
Visibility 10 miles    
Events      
T = Trace of Precipitation, MM = Missing Value Source: NWS Daily Summary

Daily Weather History Graph

Daily Weather History Graph

Search for Another Location

Airport:

Trip Planner

Search our weather history database for the weather conditions in past years. The results will help you decide how hot, cold, wet, or windy it might be!

Date:

Astronomy

Oct. 25, 2011 Rise Set
Actual Time 7:25 AM EDT 6:43 PM EDT
Civil Twilight 7:01 AM EDT 7:06 PM EDT
Nautical Twilight 6:34 AM EDT 7:34 PM EDT
Astronomical Twilight 6:07 AM EDT 8:01 PM EDT
Moon 5:59 AM EDT (10/25) 5:43 PM EDT (10/25)
Length of Visible Light 12h 05m
Length of Day
11h 17m
Waning Crescent, 2% of the Moon is Illuminated
Oct 25
Waning Crescent
Oct 26
New
Nov 2
First Quarter
Nov 10
Full
Nov 18
Last Quarter

Hourly Weather History & Observations

Time (EDT) Temp. Heat Index Dew Point Humidity Pressure Visibility Wind Dir Wind Speed Gust Speed Precip Events Conditions
12:53 AM 66.9 °F - 63.0 °F 87% 30.06 in 10.0 mi NW 10.4 mph - N/A   Scattered Clouds
1:53 AM 68.0 °F - 61.0 °F 78% 30.05 in 10.0 mi NNW 10.4 mph - N/A   Scattered Clouds
2:53 AM 70.0 °F - 60.1 °F 71% 30.03 in 10.0 mi NNW 10.4 mph - N/A   Scattered Clouds
3:53 AM 68.0 °F - 60.1 °F 76% 30.02 in 10.0 mi NNW 8.1 mph - N/A   Scattered Clouds
4:53 AM 66.9 °F - 61.0 °F 81% 30.02 in 10.0 mi NNW 6.9 mph - N/A   Partly Cloudy
5:53 AM 66.9 °F - 61.0 °F 81% 30.03 in 10.0 mi NNW 6.9 mph - N/A   Partly Cloudy
6:53 AM 66.0 °F - 61.0 °F 84% 30.04 in 10.0 mi North 5.8 mph - N/A   Partly Cloudy
7:53 AM 66.0 °F - 61.0 °F 84% 30.07 in 10.0 mi NNW 5.8 mph - N/A   Mostly Cloudy
8:53 AM 71.1 °F - 63.0 °F 75% 30.08 in 10.0 mi NNW 4.6 mph - N/A   Mostly Cloudy
9:53 AM 77.0 °F - 62.1 °F 60% 30.10 in 10.0 mi NE 11.5 mph - N/A   Mostly Cloudy
10:53 AM 79.0 °F - 63.0 °F 58% 30.10 in 10.0 mi NE 15.0 mph - N/A   Mostly Cloudy
11:53 AM 81.0 °F 81.9 °F 62.1 °F 52% 30.11 in 10.0 mi NE 17.3 mph 25.3 mph N/A   Mostly Cloudy
12:53 PM 80.1 °F 80.7 °F 59.0 °F 48% 30.10 in 10.0 mi NE 15.0 mph 23.0 mph N/A   Mostly Cloudy
1:53 PM 82.0 °F 82.4 °F 60.1 °F 47% 30.08 in 10.0 mi NE 15.0 mph - N/A   Mostly Cloudy
2:53 PM 82.0 °F 82.4 °F 60.1 °F 47% 30.06 in 10.0 mi ENE 13.8 mph - N/A   Mostly Cloudy
3:53 PM 81.0 °F 81.7 °F 61.0 °F 50% 30.05 in 10.0 mi NE 15.0 mph 21.9 mph N/A   Scattered Clouds
4:53 PM 80.1 °F 80.9 °F 60.1 °F 50% 30.05 in 10.0 mi NE 13.8 mph - N/A   Scattered Clouds
5:53 PM 79.0 °F - 61.0 °F 54% 30.05 in 10.0 mi ENE 8.1 mph - N/A   Mostly Cloudy
6:53 PM 78.1 °F - 60.1 °F 54% 30.06 in 10.0 mi ENE 10.4 mph - N/A   Scattered Clouds
7:53 PM 77.0 °F - 61.0 °F 58% 30.06 in 10.0 mi ENE 8.1 mph - N/A   Scattered Clouds
8:53 PM 77.0 °F - 63.0 °F 62% 30.07 in 10.0 mi ENE 11.5 mph - N/A   Scattered Clouds
9:53 PM 77.0 °F - 63.0 °F 62% 30.07 in 10.0 mi East 10.4 mph - N/A   Scattered Clouds
10:53 PM 75.9 °F - 63.0 °F 64% 30.08 in 10.0 mi ENE 11.5 mph - N/A   Scattered Clouds
11:53 PM 75.9 °F - 62.1 °F 62% 30.06 in 10.0 mi ENE 8.1 mph - N/A   Scattered Clouds